Tracking 33744 objects as of 12-Apr-2026
HD Live streaming from Space Station
objects crossing your sky now

SL-12 R/B(2)

Track SL-12 R/B(2) now!


NORAD ID: 26486
Int'l Code: 2000-051D
Perigee: 4,516.2 km
Apogee: 48,456.3 km
Inclination: 63.2 °
Period: 987.9 minutes
Semi major axis: 32857 km
RCS: 27.9141 m2 (large)
Launch date: September 5, 2000
Source: Commonwealth of Independent States (former USSR) (CIS)
Launch site: TYURATAM MISSILE AND SPACE COMPLEX (TTMTR)

Note: This is a ROCKET BODY
Your satellite tracking list
Your tracking list is empty




NASA's NSSDC Master Catalog

Two Line Element Set (TLE):
1 26486U 00051D   26095.37121935  .00000026  00000-0  00000-0 0  9993
2 26486  63.2174 247.1083 6686524 278.2298  20.6685  1.45766270136185
Source of the keplerian elements: AFSPC